STARLINK-2620, 48453

Orbit data source: Space-Track

STARLINK-2620, 48453 is a payload satellite owned by SpaceX/Seattle (US) in LEO that was launched on Sun, 09 May 2021 UTC via an FALCON 9 launch vehicle from the Air Force Eastern Test Range (AFETR). Payload-class satellites include a variety of spacecraft equipped with specific instruments for various scientific and technological missions. These include communications satellites like Starlink; space stations such as the ISS; scientific satellites like the Hubble; Earth observation satellites from companies like Planet Labs, Umbra, and HawkEye 360; GPS; miniature CubeSats for education and research; and military/defense satellites.

Loading next visibility...
Identifier
48453, 2021-040AB
Orbit
LEO
Country
Flag of USUS
Related business
Manufacturer
SpaceX/Seattle
Mission
Operational Commercial Communications
Bus & Motor
STARLINK, Unknown motor
Mass
260 kg wet, ~248 kg dry
Launch date (UTC)
2021-05-09 (5 years ago)
Launch vehicle
FALCON 9
Launch site
Air Force Eastern Test Range (AFETR)
Object type
Payload
Rocket body
Debris
Shape & HBR
Box + 1 Pan, 10.1 m
Radar Cross Section
13.562 m², Large (>1 m²)

Expand to show TLE details & history
Last TLE update: 2 days ago

TLE from 2 days ago
0 STARLINK-2620
1 48453U 21040AB  26171.41821015 -.00000707  00000-0 -11018-4 0  9991
2 48453  53.1609  60.1842 0001137  98.4676 261.6454 15.31691382282428
Epoch: 2026-06-20T10:02Z
TLE epoch observation values (Epoch: 2026-06-20T10:02:13.356Z)
Latitude
-0.00007°
Longitude
0.99538°
Altitude
471.779 km
Speed
7.631 km/s
True Right ascension
04h 00m 44s
True Declination
0° 00' 00"
Sunlit
Object was in daylight at epoch
Visualization orbit readout
Latitude
Unknown
Longitude
Unknown
Altitude
Unknown
Speed
Unknown
Apparent Right ascension
Unknown
Apparent Declination
Unknown
Sunlit
N/A
Visualization observer readout
Local Sidereal Time
00:25:30
Azimuth
Unknown
Elevation
Unknown
Doppler factor
Unknown
Orbital elements
Apogee altitude
471.801 km
Perigee altitude
470.243 km
Semi-major axis
6,849.159 km
Eccentricity
0.00011
Inclination
53.1609°
RAAN
60.1842°
Arg. of periapsis
98.4676°
True anomaly
261.63251°
Mean anomaly
261.6454°
Eccentric anomaly
261.63895°
Mean motion
3.82902 °/min
Orbital period
94.02 mins
BSTAR
-0.000011018
Loading maneuver chart data...
Computing Atmospheric mass density...

Documentation

Showing up to 5 results
|